Hourly Weather Roundup
Issued by NWS Central Illinois

Home | Current Version | Previous Version | Text Only | Print | Product List | Glossary On
Versions: 1 2 3 4 5 6 7 8 9 10 11 12 13 14 15 16 17 18 19 20 21 22 23 24 25 26 27 28 29 30 31 32 33 34 35 36 37 38 39 40 41 42 43 44 45 46 47 48 49 50
000
NZUS43 KILX 020210
HWRILX

AREA WEATHER ROUNDUP
NATIONAL WEATHER SERVICE, LINCOLN IL
800 PM CST THU DEC 01 2016


CITY           SKY/WX    TMP DP  RH WIND       PRES   REMARKS
BLOOMINGTON    CLOUDY    36  30  79 W8        30.05R WCI  30
CHAMPAIGN      CLOUDY    37  29  72 W13       30.06R WCI  29
DANVILLE       CLOUDY    37  30  78 W10       30.02R WCI  29
DECATUR        CLOUDY    38  28  67 NW7       30.06S WCI  33
EFFINGHAM      PTCLDY    31  31 100 CALM      30.10R
FLORA          PTCLDY    32  30  94 CALM      30.09S
GALESBURG      CLOUDY    36  31  82 SW6       30.03S WCI  31
JACKSONVILLE   CLOUDY    36  30  79 NW3       30.07S
LACON          CLOUDY    37  31  78 W9        30.03R WCI  30
LAWRENCEVILLE  PTCLDY    36  28  73 CALM      30.09R
LITCHFIELD     CLEAR     31  29  94 CALM      30.06S
$$


CITY           SKY/WX    TMP DP  RH WIND       PRES   REMARKS
LINCOLN        CLOUDY    38  30  75 W6        30.07S WCI  33
MACOMB         CLOUDY    36  31  81 W7        30.07S WCI  31
MATTOON        CLOUDY    37  29  72 VRB5      30.06R WCI  33
MT CARMEL AP   PTCLDY    33  30  88 CALM      30.09S
OLNEY-NOBLE AP PTCLDY    32  32 100 CALM      30.09S
PARIS          CLOUDY    36  31  83 W9        30.07S WCI  29
PEORIA         CLOUDY    37  30  75 SW9       30.05R WCI  30
PONTIAC        CLOUDY    38  34  87 SW9       30.03R WCI  31
RANTOUL        CLOUDY    38  32  79 W10       30.05R WCI  31
SPRINGFIELD    CLOUDY    38  29  70 NW7       30.07R WCI  33
TAYLORVILLE    CLOUDY    36  32  86 CALM      30.07S
$$

...REGIONAL REPORTS...


CITY           SKY/WX    TMP DP  RH WIND       PRES   REMARKS
CHICAGO O`HARE CLOUDY    38  32  79 W14       29.96R WCI  30
KANKAKEE       CLOUDY    37  32  81 W12       30.02S WCI  30
MOLINE         CLOUDY    39  30  70 W12       30.01S WCI  32
MOUNT STERLING CLOUDY    35  29  77 NW5       30.06S WCI  31
MOUNT VERNON   NOT AVBL
PITTSFIELD     CLOUDY    37  29  74 CALM      30.07S
QUINCY         CLOUDY    36  29  75 NW3       30.06R
ROCKFORD       LGT RAIN  37  33  85 W9        30.00R WCI  30
$$


CITY           SKY/WX    TMP DP  RH WIND       PRES   REMARKS
BURLINGTON     CLOUDY    36  30  79 SW8       30.04R WCI  30
CEDAR RAPIDS   CLOUDY    36  33  89 W10       30.00R WCI  28
DES MOINES     CLOUDY    36  29  75 W7        30.04R WCI  30
KIRKSVILLE     CLOUDY    37  28  70 W5        30.06R WCI  33
OTTUMWA        CLOUDY    37  28  70 W6        30.04R WCI  32
ST LOUIS       PTCLDY    37  26  64 SW3       30.07R
$$


CITY           SKY/WX    TMP DP  RH WIND       PRES   REMARKS
TERRE HAUTE    CLOUDY    37  29  72 W10       30.07R WCI  30
EVANSVILLE     CLEAR     35  29  78 N5        30.09S WCI  31
INDIANAPOLIS   CLOUDY    37  29  72 W13       30.04R WCI  29
LAFAYETTE      CLOUDY    37  30  75 W8        30.03R WCI  31
MADISON        CLOUDY    37  31  78 W7        29.93R WCI  32
MILWAUKEE      MOCLDY    39  32  76 W9        29.92R WCI  33
$$






USA.gov is the U.S. government's official web portal to all federal, state and local government web resources and services.